This demonstration page uses our WeatherBlox Daily Observations layout. Learn more.

Left ArrowRight Arrow

34.02893, -84.19858

Hourly Observations for July 26, 2018

Temp ( °F °C ) Dew Point ( °F °C ) Humidity (%) Winds ( mph kmh ) Pressure ( in mb ) Visibility ( mi km ) Precip ( " mm )
12:53 am 00:53 Clear 70 21.1 67 19.4 90 90 Calm 29.93 1014 10 16 0.00 0.00
1:53 am 01:53 Clear 69 20.6 67 19.4 93 93 Calm 29.92 1013 10 16 0.00 0.00
2:53 am 02:53 Clear 71 21.7 67 19.4 87 87 Calm 29.91 1013 10 16 0.00 0.00
3:53 am 03:53 Clear 69 20.6 66 18.9 90 90 N 3 6 29.91 1013 10 16 0.00 0.00
4:53 am 04:53 Clear 69 20.6 66 18.9 90 90 NNE 3 6 29.91 1013 10 16 0.00 0.00
5:53 am 05:53 Clear 69 20.6 66 18.9 90 90 N 3 6 29.93 1014 10 16 0.00 0.00
6:53 am 06:53 Sunny 68 20 66 18.9 93 93 Calm 29.94 1014 9 14 0.00 0.00
7:53 am 07:53 Sunny 71 21.7 68 20 90 90 N 5 7 29.96 1015 10 16 0.00 0.00
8:53 am 08:53 Sunny 77 25 68 20 74 74 Calm 29.98 1015 10 16 0.00 0.00
9:53 am 09:53 Sunny 80 26.7 68 20 67 67 N 5 7 29.98 1015 10 16 0.00 0.00
10:53 am 10:53 Sunny 82 27.8 70 21.1 67 67 NW 7 11 29.98 1015 10 16 0.00 0.00
11:53 am 11:53 Sunny 85 29.4 66 18.9 53 53 NW 7 11 29.98 1015 10 16 0.00 0.00
12:53 pm 12:53 Sunny 87 30.6 63 17.2 45 45 WNW 9 15 29.98 1015 10 16 0.00 0.00
1:53 pm 13:53 Partly Cloudy 89 31.7 62 16.7 41 41 N 9 15 29.97 1015 10 16 0.00 0.00
2:53 pm 14:53 Sunny 90 32.2 60 15.6 37 37 NE 8 13 29.95 1014 10 16 0.00 0.00
3:53 pm 15:53 Sunny 89 31.7 57 13.9 34 34 N 7 11 29.94 1014 10 16 0.00 0.00
4:53 pm 16:53 Sunny 90 32.2 56 13.3 32 32 NNW 7 11 29.93 1014 10 16 0.00 0.00
5:53 pm 17:53 Sunny 88 31.1 54 12.2 31 31 WNW 6 9 29.93 1014 10 16 0.00 0.00
6:53 pm 18:53 Sunny 86 30 58 14.4 39 39 NNW 9 15 29.93 1014 10 16 0.00 0.00
7:53 pm 19:53 Sunny 84 28.9 59 15 43 43 N 8 13 29.94 1014 10 16 0.00 0.00
8:53 pm 20:53 Clear 76 24.4 63 17.2 64 64 N 6 9 29.96 1015 10 16 0.00 0.00
9:53 pm 21:53 Clear 73 22.8 64 17.8 74 74 Calm 29.98 1015 10 16 0.00 0.00
10:53 pm 22:53 Clear 72 22.2 64 17.8 76 76 Calm 29.98 1015 10 16 0.00 0.00
11:53 pm 23:53 Clear 69 20.6 65 18.3 87 87 Calm 29.97 1015 10 16 0.00 0.00

Powered by AerisWeather